Flag for Canada Weather past 2 weeks in Gatineau, Quebec, Canada

Now
37 °F

Overcast.


Feels Like: 29 °F
Forecast: 35 / 39 °F
Wind: 14 mph from Southwest

Location: Ottawa Int'L. Ont.

Current Time: Dec 25, 2014 at 11:00:01 PM

Latest Report: Dec 25, 2014 at 10:00 PM


Visibility: 15 mi

Pressure: 29.91 "Hg

Humidity: 75%

Dew point: 30 °F

Location of GatineauLocation

Historic Weather in Gatineau — Graph

°F

Gatineau temperature yesterday

Maximum temperature yesterday: 37 °F (at 2:00 PM)
Minimum temperature yesterday: 34 °F (at 12:00 AM)
Average temperature yesterday: 36 °F

Past Weeks' High & Low Weather Summary

 TemperatureHumidityPressure
High45 °F (Dec 25, 3:00 AM)100% (Dec 14, 12:00 AM)30.42 "Hg (Dec 14, 12:00 AM)
Low3 °F (Dec 20, 8:00 AM)65% (Dec 25, 4:00 PM)29.21 "Hg (Dec 25, 12:47 AM)
Average26 °F90%29.99 "Hg
* Reported Dec 10 9:00 PM — Dec 25 9:00 PM, Gatineau, Weather by CustomWeather, © 2014

Note: Actual official high and low records may vary slightly from our data, if they occured in-between our weather recording intervals... More about our weather records

Advertising

Gatineau weather history for previous 24 hours

 ConditionsComfort  
Time TempWeatherWind HumidityBarometerVisibility
9:00 PM
Dec 25
37 °FOvercast.17 mph75%29.89 "Hg15 mi
8:00 PM37 °FMostly cloudy.15 mph75%29.87 "Hg15 mi
7:00 PM37 °FOvercast.16 mph70%29.83 "Hg15 mi
6:00 PM37 °FOvercast.18 mph70%29.79 "Hg15 mi
5:00 PM37 °FPartly cloudy.16 mph70%29.75 "Hg15 mi
4:00 PM39 °FPartly sunny.25 mph65%29.68 "Hg15 mi
3:00 PM37 °FSprinkles. Partly sunny.17 mph87%29.63 "Hg15 mi
2:00 PM41 °FSprinkles. Broken clouds.23 mph76%29.56 "Hg15 mi
1:00 PM43 °FPartly sunny.21 mph71%29.52 "Hg15 mi
12:00 PM41 °FBroken clouds.22 mph70%29.49 "Hg15 mi
11:00 AM43 °FPartly sunny.22 mph66%29.46 "Hg15 mi
10:00 AM41 °FPartly sunny.22 mph70%29.44 "Hg15 mi
9:00 AM41 °FBroken clouds.26 mph70%29.37 "Hg15 mi
8:00 AM41 °FPartly sunny.25 mph70%29.32 "Hg15 mi
7:00 AM41 °FPassing clouds.22 mph70%29.29 "Hg15 mi
6:00 AM39 °FOvercast.25 mph81%29.29 "Hg15 mi
5:00 AM41 °FPassing clouds.29 mph76%29.26 "Hg15 mi
4:00 AM43 °FMostly cloudy.23 mph81%29.24 "Hg15 mi
3:00 AM45 °FLight rain. Overcast.16 mph100%29.22 "Hg15 mi
2:00 AM39 °FLight rain. Fog.8 mph100%29.22 "Hg4 mi
1:00 AM37 °FThunderstorms. Fog.7 mph100%29.23 "Hg0 mi
12:47 AM37 °FThunderstorms. Fog.14 mph100%29.21 "Hg0 mi
12:00 AM37 °FFog.14 mph100%29.26 "Hg0 mi
11:00 PM
Dec 24
37 °FFog.14 mph100%29.31 "Hg1 mi
Weather by CustomWeather, © 2014

See weather overviewHow to use our weather pages